Find DMSP 10533

NORAD ID: 7816 Int'l Des: 1975-043 Owner: SAMSO Country: US operational
LEOCIRCULARRETROGRADESSO

Live-Position

3D-Globus wird geladen...

Über DMSP 10533

Beschreibung wird geladen...

Nächste Überflüge

Passes for default location (London). Set your location on the main map for personalized predictions.

Höhenverlauf

Loading altitude history...

Zweizeiliger Elementsatz

1 07816U 75043A 26105.51241040 .00000141 00000-0 77598-4 0 9998
2 07816 98.6164 312.7258 0051932 3.0132 357.1350 14.25226020350911
Epoch: 15. Apr. 2026 • Age: 14 hours

Aktueller Status

Höhe 776.7 km
Geschwindigkeit 7.49 km/s
Subsatellitenpunkt 25.24°N, 76.56°E
Typ other

Most Searched